Location: Rumah Sambob
(2.9167°N, 113.9167°E)
Time: 22:52:37
(UTC+00:00)

Daily predictions for brighter satellites

Satellite Brightness Start Highest point End
(mag) Time Altitude Azimuth Time Altitude Azimuth Time Altitude Azimuth
STARLINK-1378 4.4 12:00:49 10° SW 12:04:42 50° NW 12:08:34 10° NNE
COSMOS 2406 3.4 12:02:53 10° N 12:08:23 49° ENE 12:08:47 48° E
Cosmos 2221 Rocket 4.2 12:05:43 10° SSW 12:10:08 57° W 12:14:33 10° N
Cosmos 2082 Rocket 4.3 12:09:07 10° NE 12:09:34 11° NE 12:09:34 11° NE
HJ-1C 4.5 12:13:16 41° W 12:13:16 41° W 12:16:21 10° NNW
Cosmos 1437 Rocket 3.7 12:16:12 38° N 12:16:12 38° N 12:18:37 10° N
ATLAS 5 CENTAUR R/B 3.3 12:11:53 10° SW 12:14:38 21° S 12:14:38 21° S
BLOCK DM-SL R/B 3.9 12:15:30 10° W 12:15:48 13° W 12:15:48 13° W
Aureole 1 Rocket 4.3 12:12:53 10° N 12:19:43 87° ENE 12:23:34 35° SSE
NOSS 3-4 (A) 3.2 12:18:46 10° SSW 12:24:52 83° ESE 12:30:44 10° NNE
NOSS 3-4 (C) 3.1 12:18:52 10° SSW 12:24:58 82° ESE 12:30:50 10° NNE
Ariane Rocket 3.0 12:26:12 71° NNE 12:26:12 71° NNE 12:30:48 10° N
Cosmos 1190 Rocket 4.3 12:24:13 10° NNW 12:29:24 64° WSW 12:30:08 57° SW
Meteor 2-9 Rocket 4.0 12:24:57 10° N 12:30:11 87° NW 12:30:11 87° NW
H-2A R/B 4.0 12:32:49 10° N 12:35:26 22° NE 12:35:26 22° NE
CZ-2C R/B 3.7 12:36:28 46° SW 12:37:31 54° WSW 12:42:55 10° NNW
SEDSat Delta rocket 4.3 12:31:00 10° NW 12:37:32 55° NNE 12:37:41 55° NE
USA 267 4.0 12:42:14 36° NE 12:42:14 36° NE 12:47:26 10° NNW
Hubble Space Telescope 2.9 12:40:37 10° NW 12:42:30 25° NW 12:42:30 25° NW
ATLAS 2AS CENTAUR R/B 3.4 12:44:05 10° SW 12:51:25 60° WNW 12:59:10 10° NNE
ARGOS 4.0 12:55:16 47° W 12:55:16 47° W 12:59:52 10° NNW
Cosmos 1634 Rocket 4.3 12:51:40 10° NNW 12:57:36 63° WNW 12:57:36 63° WNW
Spelda 4.0 12:45:20 10° W 13:00:07 62° WSW 13:00:07 62° WSW
H-2A R/B 3.8 13:03:24 26° W 13:03:24 26° W 13:07:26 10° NW
Cosmos 1943 Rocket 4.2 12:59:35 10° SW 13:03:55 24° WNW 13:08:17 10° NNW
CZ-3C R/B 4.0 13:18:30 10° SW 13:41:49 37° E 22:21:46 10° E
ARIANE 5 R/B 4.0 19:11:03 37° E 19:11:03 37° E 19:21:19 10° E
Atlas Centaur 2 4.4 19:18:09 19° E 19:18:09 19° E 19:19:49 10° E
ARIANE 5 R/B 3.9 19:28:09 69° ESE 19:28:09 69° ESE 19:59:44 10° E
ARIANE 5 R/B 3.9 19:28:08 69° ESE 19:28:08 69° ESE 19:59:44 10° E
USA 234 3.4 19:40:28 10° NE 19:46:07 70° NE 19:46:07 70° NE
CZ-3A R/B 3.9 19:50:03 22° N 19:50:24 23° N 19:57:42 10° NE
OAO 3 Rocket 4.5 20:02:17 37° NE 20:02:17 37° NE 20:05:09 10° NE
Cosmos 1727 Rocket 4.3 19:57:15 10° N 20:03:19 62° E 20:05:59 34° SSE
CZ-2C R/B 2.8 20:02:21 10° NNE 20:06:44 63° NE 20:06:44 63° NE
USA 229 DEB 3.8 20:02:18 10° NNW 20:09:59 88° WSW 20:17:43 10° SSE
USA 229 3.8 20:02:24 10° NNW 20:10:06 89° WSW 20:17:50 10° SSE
NOSS 3-1 (C) 4.2 20:03:01 10° NNW 20:11:47 78° WSW 20:20:41 10° SSE
ALOS 4.4 20:15:32 10° NE 20:19:08 22° ESE 20:22:46 10° SSE
NOSS 3-1 (A) 4.4 20:11:07 10° NNW 20:19:53 77° ENE 20:28:48 10° SSE
Cosmos 1980 4.4 20:22:01 39° NW 20:22:01 39° NW 20:26:10 10° N
Delta 168 4.0 20:27:26 30° E 20:27:26 30° E 20:29:43 10° ENE
OAO 2 Rocket 4.4 20:26:22 32° SSE 20:26:50 33° SE 20:31:15 10° E
ARIANE 3 DEB 4.5 20:26:08 50° SW 20:27:57 63° S 20:42:34 10° ESE
OAO 1 Rocket 4.4 20:29:44 63° WNW 20:30:09 66° NW 20:35:27 10° NE
Cosmos 1862 3.4 20:30:43 72° NE 20:30:43 72° NE 20:34:25 10° N
STARLINK-1147 4.5 20:33:29 37° SE 20:33:47 38° SE 20:37:25 10° NE
Cosmos 1805 Rocket 3.4 20:34:46 80° SW 20:34:59 84° W 20:39:22 10° N
ADEOS 3.5 20:30:18 10° N 20:35:24 58° WNW 20:35:47 56° W
GEOS 3 Rocket 3.5 20:34:32 10° SSE 20:39:30 59° WSW 20:44:32 10° NW
GPS 2-15 Rocket1 3.0 20:39:51 66° SW 20:40:28 83° SSE 20:45:17 10° ENE
Meteor 1-31 Rocket 3.0 20:37:03 10° NNE 20:40:51 65° ESE 20:41:58 42° SSE
STARLINK-1185 4.1 20:40:39 44° SSE 20:41:14 49° SE 20:45:00 10° NE
GPS 2-14 Rocket1 4.4 20:43:12 20° SSE 20:43:12 20° SSE 20:44:45 10° SE
H-2A R/B 4.3 20:46:00 13° NW 20:46:00 13° NW 20:46:32 10° NW
Cosmos 1782 3.6 20:39:31 10° N 20:43:22 51° E 20:47:12 10° SSE
ARIANE 5 R/B 3.4 20:42:20 38° W 20:44:40 84° N 21:22:15 10° E
STARLINK-1186 3.9 20:44:16 46° SSE 20:45:00 55° SE 20:48:49 10° NE
STARLINK-1136 3.9 20:45:02 46° S 20:46:00 61° ESE 20:50:04 10° NE
Cosmos 2237 Rocket 3.3 20:47:05 25° WNW 20:47:05 25° WNW 20:51:10 10° NNW
Ariane H10+ 3.5 20:44:10 37° W 20:46:43 82° N 20:55:37 10° E
SAR-Lupe-1 4.1 20:46:53 26° SSE 20:48:46 77° ENE 20:52:17 10° N
Delta 2 Rocket 3.9 20:48:56 41° SW 20:50:52 88° SE 20:56:34 10° NE
STARLINK-1196 3.5 20:51:38 47° SSW 20:52:39 73° ESE 20:56:33 10° NE
CZ-4B R/B 1.4 20:51:39 25° SSE 20:53:14 65° ENE 20:56:13 10° N
Iridium 4 Rocket 3.8 20:53:49 35° W 20:53:49 35° W 20:58:04 10° NNW
Sylda 4400 4.2 20:54:32 27° S 20:54:40 27° SSE 20:58:32 10° ESE
Cosmos 1000 Rocket 4.4 20:53:58 10° N 21:00:13 75° W 21:06:33 10° S
Cosmos 1238 Rocket 4.1 20:56:23 10° S 21:00:51 54° E 21:06:13 10° NNE
Sich 1 3.1 20:59:22 34° SW 21:00:56 52° W 21:05:08 10° N
H-2A R/B 3.3 20:57:31 10° NNE 21:01:55 56° ESE 21:06:20 10° S
Atlas Centaur 2 2.6 21:00:45 26° W 21:03:38 46° NW 21:08:20 10° NE
STARLINK-1181 3.4 21:02:48 37° SW 21:04:14 76° NW 21:08:09 10° NNE
FENGYUN 3A 3.6 20:58:56 10° NNE 21:04:21 89° WNW 21:09:49 10° SSW
Cosmos 1484 Rocket 2.9 21:03:48 10° N 21:07:42 54° WNW 21:09:56 23° SSW
STARLINK-1183 3.5 21:06:37 33° SW 21:08:13 67° NW 21:12:06 10° NNE
SL-16 R/B 2.3 21:05:04 21° SSW 21:08:47 58° WNW 21:14:18 10° N
ARIANE 5 DEB (SYLDA) 3.5 21:07:50 29° SW 21:08:55 39° S 21:13:50 10° ESE
Cosmos 1515 Rocket 4.3 21:08:56 10° NNW 21:12:40 29° W 21:14:09 23° SW
MAQSAT/ARIANE V 3.3 21:12:14 21° SW 21:14:23 40° SSE 21:28:09 10° E
Cosmos 1844 Rocket 2.9 21:09:46 10° NW 21:14:59 43° WSW 21:20:13 10° S
ATLAS 2A CENTAUR R/B 2.2 21:14:46 22° SSW 21:16:30 47° SE 21:24:17 10° ENE
Skynet4D Del rocket 4.5 21:10:56 10° NW 21:16:41 50° NNE 21:21:55 10° ESE
Cosmos 468 4.5 21:11:56 10° SSW 21:17:16 86° WNW 21:22:35 10° N
STARLINK-1194 3.8 21:15:32 25° WSW 21:17:28 48° NW 21:21:15 10° NNE
STARLINK-1193 4.0 21:19:19 22° WSW 21:21:24 42° NW 21:25:08 10° NNE
PEGASUS R/B 4.5 21:19:45 10° N 21:22:01 32° WNW 21:23:37 20° SW
ARIANE 2 DEBRIS 3.3 21:21:02 21° WSW 21:22:48 39° S 21:26:09 10° ESE
Meteor 2-6 Rocket 4.3 21:18:37 10° N 21:24:15 83° E 21:29:45 10° S
STARLINK-1184 4.2 21:23:04 20° WSW 21:25:18 37° NW 21:28:58 10° NNE
ATLAS 2A CENTAUR R/B 2.7 21:22:17 16° W 21:25:56 33° NW 21:28:17 10° NNE
Cosmos 1812 3.8 21:24:13 10° N 21:27:56 47° E 21:31:39 10° SSE
Meteor 2-20 4.4 21:22:34 10° N 21:28:40 86° W 21:34:48 10° S
CZ-4B R/B 3.4 21:25:44 10° NNW 21:28:55 31° WNW 21:31:43 13° SW
STARLINK-1127 4.4 21:26:50 18° WSW 21:29:13 33° NW 21:32:48 10° N
Cosmos 2123 Rocket 4.0 21:26:35 10° N 21:32:43 67° W 21:38:52 10° S
Meteor PRIRODA 4.2 21:30:40 10° N 21:34:01 36° WNW 21:37:22 10° SSW
Cosmos 1441 Rocket 3.1 21:32:55 10° SSW 21:36:37 65° W 21:40:21 10° N
Cosmos 2278 Rocket 3.9 21:31:33 10° N 21:36:45 38° ENE 21:41:56 10° SE
ARIANE 44L R/B 2.5 21:34:59 10° WNW 21:36:48 28° N 21:38:45 10° ENE
PSLV R/B 3.8 21:36:13 10° N 21:40:03 63° W 21:43:59 10° SSW
Cosmos 1633 Rocket 4.0 21:40:42 10° SW 21:44:22 27° W 21:48:01 10° NNW
STARLINK-1444 2.4 21:42:10 10° NW 21:44:47 67° WSW 21:47:34 10° SSE
STARLINK-1452 2.4 21:42:47 10° NW 21:45:25 65° SW 21:48:12 10° SSE
BREEZE-M DEB (TANK) 4.4 21:40:41 10° NW 21:45:38 77° SW 22:08:51 10° SE
DELTA 2 R/B (1) 4.4 21:40:43 10° SSW 21:46:05 47° SE 21:51:26 10° ENE
STARLINK-1392 2.5 21:43:38 10° NW 21:46:15 62° SW 21:49:02 10° SSE
STARLINK-1399 2.5 21:43:40 10° NW 21:46:18 62° SW 21:49:04 10° SSE
STARLINK-1393 2.5 21:43:41 10° NW 21:46:19 62° SW 21:49:06 10° SSE
STARLINK-1394 2.5 21:43:43 10° NW 21:46:21 61° SW 21:49:08 10° SSE
STARLINK-1395 2.5 21:43:45 10° NW 21:46:23 62° SW 21:49:11 10° SSE
STARLINK-1397 2.5 21:43:46 10° NW 21:46:24 61° SW 21:49:11 10° SSE
STARLINK-1396 2.5 21:43:46 10° NW 21:46:25 61° SW 21:49:11 10° SSE
STARLINK-1414 2.5 21:43:46 10° NW 21:46:25 61° SW 21:49:12 10° SSE
STARLINK-1408 2.5 21:43:49 10° NW 21:46:27 61° SW 21:49:15 10° SSE
STARLINK-1404 2.5 21:43:51 10° NW 21:46:29 61° SW 21:49:16 10° SSE
STARLINK-1416 2.5 21:43:51 10° NW 21:46:29 61° SW 21:49:17 10° SSE
STARLINK-1415 2.5 21:43:53 10° NW 21:46:30 61° SW 21:49:18 10° SSE
STARLINK-1406 2.5 21:43:55 10° NW 21:46:32 61° WSW 21:49:20 10° SSE
STARLINK-1450 2.5 21:43:54 10° NW 21:46:32 61° SW 21:49:19 10° SSE
STARLINK-1401 2.5 21:43:56 10° NW 21:46:34 61° SW 21:49:21 10° SSE
STARLINK-1417 2.5 21:43:59 10° NW 21:46:37 61° SW 21:49:25 10° SSE
STARLINK-1402 2.5 21:44:01 10° NW 21:46:38 61° SW 21:49:25 10° SSE
STARLINK-1419 2.5 21:44:00 10° NW 21:46:38 61° SW 21:49:26 10° SSE
STARLINK-1413 2.5 21:44:01 10° NW 21:46:39 61° SW 21:49:25 10° SSE
H-10 deb 2.3 21:43:51 10° W 21:46:39 82° S 21:55:52 10° E
STARLINK-1422 2.5 21:44:06 10° NW 21:46:43 60° WSW 21:49:31 10° SSE
STARLINK-1453 2.5 21:44:07 10° NW 21:46:44 60° WSW 21:49:32 10° SSE
STARLINK-1398 2.5 21:44:09 10° NW 21:46:46 60° WSW 21:49:33 10° SSE
STARLINK-1420 2.5 21:44:10 10° NW 21:46:47 60° SW 21:49:35 10° SSE
STARLINK-1440 2.5 21:44:10 10° NW 21:46:48 60° SW 21:49:36 10° SSE
STARLINK-1436 (VISORSAT) 2.5 21:44:11 10° NW 21:46:49 60° WSW 21:49:37 10° SSE
STARLINK-1460 2.5 21:44:12 10° NW 21:46:50 60° SW 21:49:38 10° SSE
STARLINK-1410 2.5 21:44:17 10° NW 21:46:54 60° SW 21:49:42 10° SSE
STARLINK-1423 2.5 21:44:17 10° NW 21:46:55 60° SW 21:49:42 10° SSE
STARLINK-1421 2.5 21:44:17 10° NW 21:46:55 60° SW 21:49:43 10° SSE
STARLINK-1400 2.5 21:44:18 10° NW 21:46:55 60° SW 21:49:42 10° SSE
STARLINK-1454 2.5 21:44:18 10° NW 21:46:56 60° SW 21:49:43 10° SSE
STARLINK-1458 2.5 21:44:20 10° NW 21:46:58 60° SW 21:49:46 10° SSE
STARLINK-1445 2.5 21:44:23 10° NW 21:47:01 59° SW 21:49:48 10° SSE
STARLINK-1446 2.5 21:44:25 10° NW 21:47:03 59° SW 21:49:50 10° SSE
STARLINK-1407 2.5 21:44:25 10° NW 21:47:03 59° SW 21:49:50 10° SSE
STARLINK-1405 2.5 21:44:25 10° NW 21:47:03 60° SW 21:49:52 10° SSE
STARLINK-1370 2.5 21:44:28 10° NW 21:47:05 59° WSW 21:49:53 10° SSE
STARLINK-1456 2.5 21:44:28 10° NW 21:47:06 59° SW 21:49:54 10° SSE
STARLINK-1451 2.5 21:44:28 10° NW 21:47:06 59° WSW 21:49:54 10° SSE
STARLINK-1439 2.5 21:44:28 10° NW 21:47:06 59° WSW 21:49:55 10° SSE
STARLINK-1457 2.5 21:44:28 10° NW 21:47:06 59° SW 21:49:54 10° SSE
STARLINK-1409 2.5 21:44:29 10° NW 21:47:07 59° WSW 21:49:55 10° SSE
STARLINK-1437 2.5 21:44:29 10° NW 21:47:08 59° SW 21:49:55 10° SSE
STARLINK-1447 2.5 21:44:30 10° NW 21:47:08 59° SW 21:49:55 10° SSE
STARLINK-1455 2.5 21:44:30 10° NW 21:47:08 59° SW 21:49:55 10° SSE
STARLINK-1441 2.5 21:44:32 10° NW 21:47:10 59° SW 21:49:57 10° SSE
STARLINK-1443 2.5 21:44:35 10° NW 21:47:12 59° SW 21:50:00 10° SSE
STARLINK-1351 2.5 21:44:37 10° NW 21:47:14 59° SW 21:50:02 10° SSE
STARLINK-1418 2.5 21:44:37 10° NW 21:47:14 59° SW 21:50:02 10° SSE
STARLINK-1403 2.5 21:44:38 10° NW 21:47:15 59° WSW 21:50:02 10° SSE
STARLINK-1442 2.5 21:44:37 10° NW 21:47:15 59° WSW 21:50:03 10° SSE
STARLINK-1434 2.5 21:44:38 10° NW 21:47:16 59° SW 21:50:03 10° SSE
STARLINK-1448 2.5 21:44:39 10° NW 21:47:16 59° WSW 21:50:05 10° SSE
STARLINK-1433 2.5 21:44:40 10° NW 21:47:18 59° WSW 21:50:06 10° SSE
STARLINK-1449 2.5 21:44:42 10° NW 21:47:20 59° SW 21:50:07 10° SSE
STARLINK-1438 2.5 21:44:43 10° NW 21:47:22 58° WSW 21:50:10 10° SSE
STARLINK-1411 2.5 21:44:51 10° NW 21:47:29 58° SW 21:50:17 10° SSE
STARLINK-1412 2.5 21:44:51 10° NW 21:47:29 58° SW 21:50:18 10° SSE
ARIANE 44LP R/B 3.7 21:45:38 10° WSW 21:47:59 37° S 21:54:45 10° ESE
EPKM 2.3 21:46:05 10° NW 21:48:03 39° NNE 21:49:36 10° E
Cosmos 1933 Rocket 3.6 21:45:44 10° S 21:50:12 83° W 21:54:38 10° N
Ariane H10-3 3.4 21:48:37 10° WNW 21:51:56 63° N 22:07:22 10° E
STARLINK-60 3.7 21:50:42 10° WNW 21:53:34 30° SW 21:56:26 10° S
ARIANE R/B 3.6 21:51:12 10° WNW 21:54:58 54° N 21:59:08 10° E
SKYMED 2 4.4 21:50:43 10° SSE 21:54:58 56° ENE 21:59:12 10° N
